Regional Weather Roundup
Issued by NWS

Home | Current Version | Previous Version | Graphics & Text | Print | Product List | Glossary On
Versions: 1 2 3 4 5 6 7 8 9 10 11 12 13 14 15 16 17 18 19 20 21 22 23 24 25 26 27 28 29 30 31 32 33 34 35 36 37 38 39 40 41 42 43 44 45 46 47 48 49 50
000
ASUS43 KMPX 251710
RWRMN
WEATHER ROUNDUP FOR MINNESOTA
NATIONAL WEATHER SERVICE TWIN CITIES/CHANHASSEN MN
1200 PM CDT SAT APR 25 2015


NOTE: "FAIR" INDICATES FEW OR NO CLOUDS BELOW 12,000 FEET WITH NO
SIGNIFICANT WEATHER AND/OR OBSTRUCTIONS TO VISIBILITY. N/A MEANS
CURRENT SKY AND/OR WEATHER CONDITIONS ARE NOT AVAILABLE.

MNZ060>063-068>070-251800-
   Twin Cities Metro

CITY           SKY/WX    TMP DP  RH WIND       PRES   REMARKS
TWIN CITIES    PTSUNNY   54  37  52 E15G21    29.86S
ST PAUL        MOSUNNY   53  35  50 E14G20    29.87F
CRYSTAL        CLOUDY    52  34  50 NE12G20   29.86S
BLAINE         CLOUDY    52  36  54 E14G20    29.88S
LAKEVILLE      MOSUNNY   50  39  66 E14G21    29.84S
EDEN PRAIRIE   MOSUNNY   53  38  56 E13       29.83F
SOUTH ST PAUL  MOSUNNY   53  34  48 NE9G17    29.86F
LAKE ELMO      FAIR      54  34  47 E10G18    29.87F
$$
MNZ001>005-007-008-013>017-022>024-027-028-251800-
   Northwest Minnesota

CITY           SKY/WX    TMP DP  RH WIND       PRES   REMARKS
BEMIDJI        SUNNY     51  33  49 E13       29.93R
HALLOCK        SUNNY     55  34  44 SE8G17    29.92S
ROSEAU         SUNNY     54  28  37 E13       29.95S
WARROAD        SUNNY     46  28  49 NE13G18   29.98S
THIEF RVR FALL SUNNY     55  34  44 E12G17    29.92S
CROOKSTON      SUNNY     55  36  47 SE13      29.91S
FOSSTON        CLOUDY    55  34  44 SE9G18    29.91S
DETROIT LAKES  SUNNY     52  37  58 SE12G20   29.90R
MOORHEAD       PTSUNNY   46  36  66 SE7       29.91R
PARK RAPIDS    CLOUDY    52  34  50 E12       29.91R
MAHNOMEN       CLOUDY    51  35  54 SE9G18    29.90R
$$
MNZ006-009>011-018-025>026-251800-
   North Central Minnesota

CITY           SKY/WX    TMP DP  RH WIND       PRES   REMARKS
BAUDETTE       SUNNY     55  27  34 E12       29.96S
FLAG ISLAND    SUNNY     46  27  46 SE7       29.97F
INTL FALLS     SUNNY     50  23  34 E8        29.98S
WASKISH        SUNNY     55  32  41 E15       29.95S
BIG FORK       SUNNY     54  28  37 E8        29.96S
LONGVILLE      CLOUDY    50  32  50 E8        29.94R
GRAND RAPIDS   CLOUDY    46  25  42 SE5       29.95S
CRANE LAKE     SUNNY     48  16  27 NE6       30.00F
ORR            CLOUDY    50  16  25 E3        29.95S
COOK           MOSUNNY   52  23  32 NE5       29.97S
WALKER         CLOUDY    46  32  57 E7        29.93S
$$
MNZ012-019>021-037-251800-
   Northeast Minnesota

CITY           SKY/WX    TMP DP  RH WIND       PRES   REMARKS
DULUTH         CLOUDY    42  26  53 E15       29.97S
ELY            MOSUNNY   50  12  22 NE5       29.97S
HIBBING        CLOUDY    44  21  40 E8        29.97R
EVELETH        SUNNY     45  21  39 E5        29.98S
DULUTH HARBOR  PTSUNNY   37  32  81 NE20      30.01S
TWO HARBORS    SUNNY     46  30  53 E20       29.98S
SILVER BAY     SUNNY     43  23  45 NE14G21   30.00R
GRAND MARAIS     N/A     39  27  62 E13       30.04S
G MARAIS ARPRT SUNNY     45   7  21 NE12      29.99S
$$
MNZ029>031-032-039>041-046>048-054>057-064-251800-
   West Central Minnesota

CITY           SKY/WX    TMP DP  RH WIND       PRES   REMARKS
FERGUS FALLS   PTSUNNY   45  34  65 SE10      29.90S
WHEATON        CLOUDY    41  39  93 E13       29.89S
MORRIS         MOSUNNY   45  39  81 E16       29.86R
ALEXANDRIA     CLOUDY    45  38  76 E10       29.89R
ELBOW LAKE     CLOUDY    43  37  81 E14       29.88R
WADENA         PTSUNNY   48  36  61 E13G18    29.89S
GLENWOOD       MOSUNNY   46  41  81 E14       29.87R
APPLETON       SUNNY     48  41  76 E10       29.85R
BENSON         CLOUDY    46  39  76 SE13      29.86R
ORTONVILLE     CLOUDY    45  39  81 E9        29.85R
MADISON        CLOUDY    46  41  81 E10       29.84R
WILLMAR        FAIR      48  43  81 E16       29.86R
$$
MNZ033>034-036-042>043-049>051-058-059-251800-
   Central Minnesota

CITY           SKY/WX    TMP DP  RH WIND       PRES   REMARKS
ST CLOUD       PTSUNNY   50  37  61 E14       29.88S
SAUK CENTRE    CLOUDY    47  39  73 E13       29.88R
PAYNESVILLE    CLOUDY    45  39  77 NE16      29.87S
AITKIN         MOSUNNY   48  32  53 E12G17    29.92S
PINE RIVER     PTSUNNY   46  36  66 SE8       29.96S
BRAINERD       CLOUDY    46  34  62 NE12G17   29.93R
STAPLES        PTSUNNY   48  34  57 E8G17     29.90S
LONG PRAIRIE   CLOUDY    46  37  71 E10       29.89R
LITTLE FALLS   MOSUNNY   50  36  57 E10       29.89S
LITCHFIELD     PTSUNNY   50  43  76 E14G20    29.86S
BUFFALO        MOSUNNY   52  37  55 E14G21    29.87S
MAPLE LAKE     MOSUNNY   54  41  62 E12       29.87F
$$
MNZ037-044-045-052-053-251800-
   East Central Minnesota

CITY           SKY/WX    TMP DP  RH WIND       PRES   REMARKS
PRINCETON      MOSUNNY   52  36  54 E12G17    29.89S
MORA           PTSUNNY   50  32  50 E9G16     29.91F
CAMBRIDGE      MOSUNNY   55  37  50 NE8G16    29.88S
RUSH CITY      MOSUNNY   54  31  42 SE9       29.90S
MOOSE LAKE     CLOUDY    41  30  65 NE9       29.94S
HINCKLEY       CLOUDY    52  30  43 E12G18    29.91F
CLOQUET        CLOUDY    39  25  56 E13G18    29.97S
MCGREGOR       CLOUDY    45  30  57 E13       29.96S
$$
MNZ071>073-080-081-089-090-097-098-251800-
   Southwest Minnesota

CITY           SKY/WX    TMP DP  RH WIND       PRES   REMARKS
MONTEVIDEO     CLOUDY    46  43  87 SE14      29.85R
GRANITE FALLS  CLOUDY    49  39  67 E9G17     29.84S
CANBY          CLOUDY    47  40  76 E13       29.83S
MARSHALL       CLOUDY    48  37  66 E13G20    29.81S
REDWOOD FALLS  CLOUDY    51  39  63 E15       29.81S
OLIVIA         CLOUDY    48  37  66 E17G23    29.82S
PIPESTONE      PTSUNNY   52  43  71 E14       29.76R
WINDOM         PTSUNNY   52  39  62 E17       29.79R
WORTHINGTON    CLOUDY    48  39  71 E18G24    29.77R
JACKSON        CLOUDY    50  37  62 E15G21    29.78R
TRACY          CLOUDY    49  40  69 E13       29.80S
SLAYTON        CLOUDY    51  40  65 E13G20    29.79R
$$
MNZ065>067-074>077-082>085-091>093-251800-
   South Central Minnesota

CITY           SKY/WX    TMP DP  RH WIND       PRES   REMARKS
MANKATO        CLOUDY    50  37  62 NE13      29.82R
NEW ULM        CLOUDY    48  39  71 E12G17    29.81F
ST JAMES       CLOUDY    52  39  62 NE15      29.81S
FAIRMONT       CLOUDY    48  39  71 E15       29.78S
GLENCOE        PTSUNNY   53  42  66 NE7G17    29.83F
FARIBAULT      CLOUDY    50  41  71 NE14      29.83S
OWATONNA       PTSUNNY   50  39  66 E14       29.82R
WASECA         PTSUNNY   50  41  71 E15       29.82R
ALBERT LEA     PTSUNNY   52  43  71 E15G22    29.78R
$$
MNZ078>079-086>088-094>096-251800-
   Southeast Minnesota

CITY           SKY/WX    TMP DP  RH WIND       PRES   REMARKS
ROCHESTER      MOSUNNY   47  39  74 E18       29.82S
RED WING       MOSUNNY   54  36  50 E14       29.84F
STANTON        PTSUNNY   53  40  61 E15       29.83S
DODGE CENTER   PTSUNNY   48  43  81 E16       29.81S
AUSTIN         CLOUDY    52  41  66 E16G22    29.78S
PRESTON        CLOUDY    47  37  67 E12G21    29.80S
$$
ABBREVIATIONS USED IN REMARKS
   TC - TEMPERATURES IN CELSIUS
  WCI - WIND CHILL INDEX
   HX - HEAT INDEX
  VSB - VISIBILITY
$$



USA.gov is the U.S. government's official web portal to all federal, state and local government web resources and services.